Regional Weather Roundup
Issued by NWS Sioux Falls, SD

Home | Current Version | Previous Version | Text Only | Print | Product List | Glossary On
Versions: 1 2 3 4 5 6 7 8 9 10 11 12 13 14 15 16 17 18 19 20 21 22 23 24 25 26 27 28 29 30 31 32 33 34 35 36 37 38 39 40 41 42 43 44 45 46 47 48 49 50
000
ASUS43 KFSD 180210
RWRFSD

WEATHER ROUNDUP FOR SE SOUTH DAKOTA/SW MINNESOTA/NW IOWA
NATIONAL WEATHER SERVICE SIOUX FALLS SD
800 PM CST WED DEC 17 2014

NOTE: "FAIR" INDICATES FEW OR NO CLOUDS BELOW 12,000 FEET WITH NO
SIGNIFICANT WEATHER AND OR OBSTRUCTIONS TO VISIBILITY.


SDZ038>040-050-052>070-180300-
SOUTHEAST SOUTH DAKOTA

CITY           SKY/WX    TMP DP  RH WIND       PRES   REMARKS
CHAMBERLAIN    CLOUDY    15  13  90 SE9       30.20S WCI   3
HURON          MOCLDY     9   6  88 NE3       30.25F FOG
MADISON        FAIR       9   9 100 E7        30.23F WCI  -3
MITCHELL       PTCLDY    12   9  87 SE5       30.26F WCI   4
SIOUX FALLS    CLEAR     11   8  88 NE5       30.24F WCI   3
WINNER         CLOUDY    22  18  85 SE12      30.15S WCI  10
YANKTON        PTCLDY    12   9  85 NE5       30.27S WCI   4
$$

MNZ071-072-080-081-089-090-097-098-180300-
SOUTHWEST MINNESOTA

CITY           SKY/WX    TMP DP  RH WIND       PRES   REMARKS
FAIRMONT       MOCLDY    12   9  85 N3        30.29F
JACKSON        PTCLDY    12  10  92 CALM      30.27F
LUVERNE        PTCLDY    18  14  86 NE7       30.25F WCI   8
MARSHALL       PTCLDY     7   3  85 CALM      30.30F
MONTEVIDEO     CLEAR     10   9  92 CALM      30.32S
REDWOOD FALLS  PTCLDY    11   8  88 W6        30.33R WCI   1
TRACY          PTCLDY    10   8  91 CALM      30.30F
WINDOM         PTCLDY     9   7  92 CALM      30.29F
WORTHINGTON    PTCLDY    12   9  85 N6        30.26F WCI   3
$$

IAZ001>003-012>014-020>022-031-032-NEZ013-014-SDZ071-180300-
NORTHWEST IOWA

CITY           SKY/WX    TMP DP  RH WIND       PRES   REMARKS
CHEROKEE       CLEAR     18  17  94 CALM      30.26S
DENISON        CLOUDY    21  19  93 CALM      30.25S
ESTHERVILLE    PTCLDY    12  10  92 N7        30.28S WCI   1
LE MARS        PTCLDY    16  14  93 CALM      30.27S
ORANGE CITY    PTCLDY    21  18  86 E3        30.25S
SHELDON        CLEAR     16  14  93 NE7       30.24F WCI   6
SIOUX CITY     PTCLDY    22  15  75 NE5       30.27F WCI  16
SPENCER        CLEAR     14  10  84 N7        30.26F WCI   4
STORM LAKE     CLEAR     18  14  86 E8        30.25S WCI   7
$$

ABBREVIATIONS USED IN REMARKS
   TC - TEMPERATURE IN CELSIUS
  WCI - WIND CHILL INDEX
   HX - HEAT INDEX
  VSB - VISIBILITY




USA.gov is the U.S. government's official web portal to all federal, state and local government web resources and services.